Regional Weather Roundup
Issued by NWS

Home | Current Version | Previous Version | Text Only | Print | Product List | Glossary On
Versions: 1 2 3 4 5 6 7 8 9 10 11 12 13 14 15 16 17 18 19 20 21 22 23 24 25 26 27 28 29 30 31 32 33 34 35 36 37 38 39 40 41 42 43 44 45 46 47 48 49 50
000
ASUS43 KLSX 221659
RWRMO

WEATHER SUMMARY FOR MISSOURI
NATIONAL WEATHER SERVICE SPRINGFIELD MO
1200 PM CDT TUE APR 22 2014

NOTE: "FAIR" INDICATES FEW OR NO CLOUDS BELOW 12,000 FEET WITH NO
       SIGNIFICANT WEATHER AND/OR OBSTRUCTIONS TO VISIBILITY.
       CURRENT SKY AND/OR WEATHER CONDITIONS ARE NOT AVAILABLE FOR
       CHILLICOTHE AND FARMINGTON.

MOZ001>031-035>038-043-044-053-054-221800-
...NORTHERN AND WESTERN MISSOURI...

CITY           SKY/WX    TMP DP  RH WIND       PRES   REMARKS
KANSAS CTY INT MOSUNNY   61  32  33 NE10      30.15S
KANSAS C DTWN  SUNNY     63  32  31 N5        30.14S
LEE`S SUMMIT   SUNNY     60  32  34 N8        30.14S
ST JOSEPH      SUNNY     60  31  33 VRB3      30.16S
CHILLICOTHE      N/A     60  36  40 N8        30.14F
KIRKSVILLE     SUNNY     58  33  39 N13G21    30.12F

$$
MOZ066>068-077>081-088>096-101>105-221800-
...SOUTHWEST MISSOURI...

CITY           SKY/WX    TMP DP  RH WIND       PRES   REMARKS
SPRINGFIELD    SUNNY     64  39  39 NW12      30.10R
JOPLIN         SUNNY     64  41  42 VRB7      30.12S

$$
MOZ032>034-039>042-045>050-055>058-069>072-221800-
...CENTRAL MISSOURI...

CITY           SKY/WX    TMP DP  RH WIND       PRES   REMARKS
COLUMBIA       SUNNY     59  37  44 N10       30.09F
JEFFERSON CITY SUNNY     61  36  39 VRB6      30.09S
ROLLA          SUNNY     61  40  45 VRB7      30.06F
SEDALIA        SUNNY     61  35  37 NE10      30.12S
OSAGE BEACH    SUNNY     63  39  42 NW12      30.10F

$$
MOZ051-052-059>065-221800-
...EAST CENTRAL MISSOURI...

CITY           SKY/WX    TMP DP  RH WIND       PRES   REMARKS
ST LOUIS INTL  MOSUNNY   63  40  42 N12       30.04F
SPIRIT OF STL  SUNNY     62  40  44 NW8G16    30.05S
ST CHARLES     SUNNY     62  41  46 N10       30.04S

$$
MOZ072>076-082>087-097>100-106>115-221800-
...SOUTH CENTRAL AND SOUTHEAST MISSOURI...

CITY           SKY/WX    TMP DP  RH WIND       PRES   REMARKS
CAPE GIRARDEAU SUNNY     68  47  46 NW16      29.98S
FARMINGTON     SUNNY     63  41  45 N12       30.05S
POPLAR BLUFF   SUNNY     70  45  40 N13       29.98R
WEST PLAINS    SUNNY     66  37  34 NE14      30.04F

$$



USA.gov is the U.S. government's official web portal to all federal, state and local government web resources and services.